,,Stat6,,Stat2,,Stat8,,Stat9,,Stat10,,Wind1,,Wind1,
time,status,PA1M_AVG,status,PR1M_SUM,status,RH1M_AVG,status,SR1M_AVG,status,TA1M_AVG,status,W1dAve1m,status,W1sAve1m,
2007-03-22, 00:00:00,VALID,918.699,VALID,0,VALID,100,VALID,0.0169808,VALID,18.9098,VALID,141,VALID,0.582667,
2007-03-22, 00:01:00,VALID,918.689,VALID,0,VALID,100,VALID,0.0169808,VALID,18.9063,VALID,141,VALID,0.607677,
2007-03-22, 00:02:00,VALID,918.71,VALID,0,VALID,100,VALID,0.0339617,VALID,18.903,VALID,141,VALID,0.696911,
2007-03-22, 00:03:00,VALID,918.721,VALID,0,VALID,100,VALID,0.0509425,VALID,18.8963,VALID,141,VALID,0.50093,
2007-03-22, 00:04:00,VALID,918.721,VALID,0,VALID,100,VALID,0.0679233,VALID,18.8966,VALID,141,VALID,0.45476,
2007-03-22, 00:05:00,VALID,918.716,VALID,0,VALID,100,VALID,0.0339617,VALID,18.8866,VALID,141,VALID,0.509028,
2007-03-22, 00:06:00,VALID,918.715,VALID,0,VALID,100,VALID,0,VALID,18.8873,VALID,140,VALID,0.73609,
2007-03-22, 00:07:00,VALID,918.697,VALID,0,VALID,100,VALID,0,VALID,18.8901,VALID,110,VALID,0.639205,
2007-03-22, 00:08:00,VALID,918.675,VALID,0,VALID,100,VALID,-0.0169808,VALID,18.8841,VALID,107,VALID,0.725446,
2007-03-22, 00:09:00,VALID,918.654,VALID,0,VALID,100,VALID,0,VALID,18.8773,VALID,107,VALID,0.877404,
2007-03-22, 00:10:00,VALID,918.637,VALID,0,VALID,100,VALID,0,VALID,18.8873,VALID,104,VALID,0.826882,
2007-03-22, 00:11:00,VALID,918.615,VALID,0,VALID,100,VALID,0,VALID,18.9033,VALID,102,VALID,0.78869,
2007-03-22, 00:12:00,VALID,918.593,VALID,0,VALID,100,VALID,0.0169808,VALID,18.91,VALID,104,VALID,0.761991,
2007-03-22, 00:13:00,VALID,918.579,VALID,0,VALID,100,VALID,0.0679233,VALID,18.903,VALID,103,VALID,0.667882,
2007-03-22, 00:14:00,VALID,918.581,VALID,0,VALID,100,VALID,0.0169808,VALID,18.9065,VALID,102,VALID,0.472301,
2007-03-22, 00:15:00,VALID,918.592,VALID,0,VALID,100,VALID,-0.0339617,VALID,18.891,VALID,101,VALID,0.426067,
2007-03-22, 00:16:00,VALID,918.6,VALID,0,VALID,100,VALID,-0.0169808,VALID,18.8811,VALID,101,VALID,0.100419,
2007-03-22, 00:17:00,VALID,918.617,VALID,0,VALID,100,VALID,-0.0339617,VALID,18.8644,VALID,102,VALID,0.249826,
2007-03-22, 00:18:00,VALID,918.615,VALID,0,VALID,100,VALID,-0.0509425,VALID,18.8648,VALID,129,VALID,0.753634,
2007-03-22, 00:19:00,VALID,918.623,VALID,0,VALID,100,VALID,-0.0339617,VALID,18.8651,VALID,135,VALID,0.991257,
2007-03-22, 00:20:00,VALID,918.628,VALID,0,VALID,100,VALID,-0.0509425,VALID,18.8588,VALID,125,VALID,0.80152,
2007-03-22, 00:21:00,VALID,918.62,VALID,0,VALID,100,VALID,-0.0509425,VALID,18.8523,VALID,114,VALID,0.680432,
2007-03-22, 00:22:00,VALID,918.622,VALID,0,VALID,100,VALID,-0.0169808,VALID,18.8324,VALID,108,VALID,0.828325,
2007-03-22, 00:23:00,VALID,918.61,VALID,0,VALID,100,VALID,-0.0339617,VALID,18.8159,VALID,111,VALID,0.796875,
2007-03-22, 00:24:00,VALID,918.574,VALID,0,VALID,100,VALID,-0.0169808,VALID,18.8122,VALID,110,VALID,0.557664,
2007-03-22, 00:25:00,VALID,918.575,VALID,0,VALID,100,VALID,0.0169808,VALID,18.8032,VALID,110,VALID,0.523438,
2007-03-22, 00:26:00,VALID,918.571,VALID,0,VALID,100,VALID,-0.0339617,VALID,18.79,VALID,110,VALID,0.234193,
2007-03-22, 00:27:00,VALID,918.574,VALID,0,VALID,100,VALID,-0.0509425,VALID,18.7872,VALID,125,VALID,0.64117,
2007-03-22, 00:28:00,VALID,918.556,VALID,0,VALID,100,VALID,0,VALID,18.7837,VALID,123,VALID,0.644886,
2007-03-22, 00:29:00,VALID,918.541,VALID,0,VALID,100,VALID,-0.0509425,VALID,18.784,VALID,117,VALID,0.540015,
2007-03-22, 00:30:00,VALID,918.533,VALID,0,VALID,100,VALID,0.0679233,VALID,18.7763,VALID,113,VALID,0.598028,
2007-03-22, 00:31:00,VALID,918.53,VALID,0,VALID,100,VALID,0.0169808,VALID,18.7666,VALID,108,VALID,0.383176,
2007-03-22, 00:32:00,VALID,918.529,VALID,0,VALID,100,VALID,0.0339617,VALID,18.7668,VALID,108,VALID,0.485899,
2007-03-22, 00:33:00,VALID,918.535,VALID,0,VALID,100,VALID,0.0169808,VALID,18.7601,VALID,108,VALID,0.441667,
2007-03-22, 00:34:00,VALID,918.524,VALID,0,VALID,100,VALID,0.0679233,VALID,18.7504,VALID,116,VALID,0.672247,
2007-03-22, 00:35:00,VALID,918.517,VALID,0,VALID,100,VALID,0.0169808,VALID,18.7571,VALID,124,VALID,0.896662,
2007-03-22, 00:36:00,VALID,918.512,VALID,0,VALID,100,VALID,0.0509425,VALID,18.7636,VALID,119,VALID,0.88186,
2007-03-22, 00:37:00,VALID,918.498,VALID,0,VALID,100,VALID,0.0339617,VALID,18.7636,VALID,110,VALID,0.582564,
2007-03-22, 00:38:00,VALID,918.497,VALID,0,VALID,100,VALID,0.0339617,VALID,18.7599,VALID,115,VALID,0.65816,
2007-03-22, 00:39:00,VALID,918.469,VALID,0,VALID,100,VALID,0.0339617,VALID,18.7601,VALID,119,VALID,0.707889,
2007-03-22, 00:40:00,VALID,918.47,VALID,0,VALID,100,VALID,0.0679233,VALID,18.7633,VALID,119,VALID,0.615699,
2007-03-22, 00:41:00,VALID,918.469,VALID,0,VALID,100,VALID,0.0849042,VALID,18.7596,VALID,120,VALID,0.470796,
2007-03-22, 00:42:00,VALID,918.459,VALID,0,VALID,100,VALID,0.0339617,VALID,18.7696,VALID,120,VALID,0.389757,
2007-03-22, 00:43:00,VALID,918.432,VALID,0,VALID,100,VALID,0.0339617,VALID,18.7798,VALID,134,VALID,0.789807,
2007-03-22, 00:44:00,VALID,918.428,VALID,0,VALID,100,VALID,0.0169808,VALID,18.78,VALID,141,VALID,0.670422,
2007-03-22, 00:45:00,VALID,918.436,VALID,0,VALID,100,VALID,-0.0849042,VALID,18.7974,VALID,141,VALID,0.613095,
2007-03-22, 00:46:00,VALID,918.43,VALID,0,VALID,100,VALID,-0.0679233,VALID,18.7972,VALID,141,VALID,0.618712,
2007-03-22, 00:47:00,VALID,918.439,VALID,0,VALID,100,VALID,-0.0679233,VALID,18.7875,VALID,141,VALID,0.645089,
2007-03-22, 00:48:00,VALID,918.451,VALID,0,VALID,100,VALID,-0.0679233,VALID,18.774,VALID,141,VALID,0.582403,
2007-03-22, 00:49:00,VALID,918.43,VALID,0,VALID,100,VALID,-0.0169808,VALID,18.771,VALID,141,VALID,0.490513,
2007-03-22, 00:50:00,VALID,918.436,VALID,0,VALID,100,VALID,-0.0679233,VALID,18.771,VALID,141,VALID,0.547207,
2007-03-22, 00:51:00,VALID,918.43,VALID,0,VALID,100,VALID,-0.101885,VALID,18.7615,VALID,142,VALID,0.68314,
2007-03-22, 00:52:00,VALID,918.428,VALID,0,VALID,100,VALID,-0.0849042,VALID,18.7682,VALID,144,VALID,0.7371,
2007-03-22, 00:53:00,VALID,918.432,VALID,0,VALID,100,VALID,-0.0849042,VALID,18.7585,VALID,148,VALID,0.848772,
2007-03-22, 00:54:00,VALID,918.446,VALID,0,VALID,100,VALID,-0.0339617,VALID,18.755,VALID,158,VALID,0.919829,
2007-03-22, 00:55:00,VALID,918.445,VALID,0,VALID,100,VALID,-0.0169808,VALID,18.7453,VALID,166,VALID,0.989099,
2007-03-22, 00:56:00,VALID,918.466,VALID,0,VALID,100,VALID,-0.0509425,VALID,18.7485,VALID,155,VALID,0.715774,
2007-03-22, 00:57:00,VALID,918.454,VALID,0,VALID,100,VALID,-0.0679233,VALID,18.7388,VALID,151,VALID,1.12054,
2007-03-22, 00:58:00,VALID,918.445,VALID,0,VALID,100,VALID,-0.0509425,VALID,18.7323,VALID,149,VALID,0.972565,
2007-03-22, 00:59:00,VALID,918.449,VALID,0,VALID,100,VALID,-0.0509425,VALID,18.7256,VALID,142,VALID,0.774503,
2007-03-22, 01:00:00,VALID,918.437,VALID,0,VALID,100,VALID,0.0169808,VALID,18.7149,VALID,142,VALID,1.05469,
2007-03-22, 01:01:00,VALID,918.423,VALID,0,VALID,100,VALID,0.0509425,VALID,18.7084,VALID,139,VALID,0.920455,
2007-03-22, 01:02:00,VALID,918.431,VALID,0,VALID,100,VALID,0.0339617,VALID,18.7047,VALID,131,VALID,0.911585,
2007-03-22, 01:03:00,VALID,918.407,VALID,0,VALID,100,VALID,0.0339617,VALID,18.7117,VALID,137,VALID,0.802973,
2007-03-22, 01:04:00,VALID,918.387,VALID,0,VALID,100,VALID,0.0339617,VALID,18.7052,VALID,140,VALID,1.02716,
2007-03-22, 01:05:00,VALID,918.388,VALID,0,VALID,100,VALID,0.0339617,VALID,18.7212,VALID,148,VALID,0.795351,
2007-03-22, 01:06:00,VALID,918.367,VALID,0,VALID,100,VALID,0.0169808,VALID,18.7212,VALID,151,VALID,0.682813,
2007-03-22, 01:07:00,VALID,918.366,VALID,0,VALID,100,VALID,0.0169808,VALID,18.7182,VALID,152,VALID,0.626715,
2007-03-22, 01:08:00,VALID,918.371,VALID,0,VALID,100,VALID,0.0339617,VALID,18.7147,VALID,152,VALID,0.806176,
2007-03-22, 01:09:00,VALID,918.369,VALID,0,VALID,100,VALID,0.0169808,VALID,18.711,VALID,152,VALID,0.803052,
2007-03-22, 01:10:00,VALID,918.343,VALID,0,VALID,100,VALID,0.0509425,VALID,18.7311,VALID,152,VALID,0.759896,
2007-03-22, 01:11:00,VALID,918.345,VALID,0,VALID,100,VALID,0.0509425,VALID,18.7239,VALID,151,VALID,0.814862,
2007-03-22, 01:12:00,VALID,918.335,VALID,0,VALID,100,VALID,0.0509425,VALID,18.7337,VALID,151,VALID,0.723544,
2007-03-22, 01:13:00,VALID,918.325,VALID,0,VALID,100,VALID,0.0679233,VALID,18.7434,VALID,151,VALID,0.63141,
2007-03-22, 01:14:00,VALID,918.325,VALID,0,VALID,100,VALID,0.0509425,VALID,18.7444,VALID,152,VALID,0.480097,
2007-03-22, 01:15:00,VALID,918.313,VALID,0,VALID,100,VALID,-0.0339617,VALID,18.7418,VALID,150,VALID,0.359375,
2007-03-22, 01:16:00,VALID,918.315,VALID,0,VALID,100,VALID,-0.0509425,VALID,18.7481,VALID,148,VALID,0.5625,
2007-03-22, 01:17:00,VALID,918.312,VALID,0,VALID,100,VALID,0,VALID,18.7416,VALID,148,VALID,0.423785,
2007-03-22, 01:18:00,VALID,918.318,VALID,0,VALID,100,VALID,-0.0339617,VALID,18.7349,VALID,146,VALID,0.315625,
2007-03-22, 01:19:00,VALID,918.319,VALID,0,VALID,100,VALID,0,VALID,18.7251,VALID,146,VALID,0,
2007-03-22, 01:20:00,VALID,918.314,VALID,0,VALID,100,VALID,-0.0509425,VALID,18.7256,VALID,146,VALID,0,
2007-03-22, 01:21:00,VALID,918.294,VALID,0,VALID,100,VALID,-0.0339617,VALID,18.7122,VALID,146,VALID,0,
2007-03-22, 01:22:00,VALID,918.288,VALID,0,VALID,100,VALID,-0.0339617,VALID,18.7029,VALID,146,VALID,0,
2007-03-22, 01:23:00,VALID,918.274,VALID,0,VALID,100,VALID,0,VALID,18.7061,VALID,146,VALID,0,
2007-03-22, 01:24:00,VALID,918.263,VALID,0,VALID,100,VALID,-0.0339617,VALID,18.7196,VALID,146,VALID,0,
2007-03-22, 01:25:00,VALID,918.252,VALID,0,VALID,100,VALID,-0.0509425,VALID,18.7094,VALID,146,VALID,0,
2007-03-22, 01:26:00,VALID,918.249,VALID,0,VALID,100,VALID,-0.0339617,VALID,18.7161,VALID,146,VALID,0.167878,
2007-03-22, 01:27:00,VALID,918.245,VALID,0,VALID,100,VALID,-0.0849042,VALID,18.6999,VALID,146,VALID,0.302689,
2007-03-22, 01:28:00,VALID,918.254,VALID,0,VALID,100,VALID,-0.0509425,VALID,18.6939,VALID,145,VALID,0.406432,
2007-03-22, 01:29:00,VALID,918.248,VALID,0,VALID,100,VALID,-0.0509425,VALID,18.6672,VALID,144,VALID,0.28125,
2007-03-22, 01:30:00,VALID,918.238,VALID,0,VALID,100,VALID,-0.0169808,VALID,18.644,VALID,144,VALID,0,
2007-03-22, 01:31:00,VALID,918.249,VALID,0,VALID,100,VALID,-0.0509425,VALID,18.638,VALID,144,VALID,0,
2007-03-22, 01:32:00,VALID,918.248,VALID,0,VALID,100,VALID,-0.0169808,VALID,18.635,VALID,144,VALID,0,
2007-03-22, 01:33:00,VALID,918.231,VALID,0,VALID,100,VALID,-0.0679233,VALID,18.6248,VALID,144,VALID,0.0277158,
2007-03-22, 01:34:00,VALID,918.232,VALID,0,VALID,100,VALID,-0.0509425,VALID,18.6146,VALID,144,VALID,0.32777,
2007-03-22, 01:35:00,VALID,918.215,VALID,0,VALID,100,VALID,-0.0339617,VALID,18.6216,VALID,143,VALID,0.373857,
2007-03-22, 01:36:00,VALID,918.222,VALID,0,VALID,100,VALID,-0.0509425,VALID,18.6251,VALID,141,VALID,0.453125,
2007-03-22, 01:37:00,VALID,918.219,VALID,0,VALID,100,VALID,0,VALID,18.6183,VALID,139,VALID,0.692819,
2007-03-22, 01:38:00,VALID,918.213,VALID,0,VALID,100,VALID,-0.0339617,VALID,18.6146,VALID,131,VALID,0.838825,
2007-03-22, 01:39:00,VALID,918.216,VALID,0,VALID,100,VALID,-0.0169808,VALID,18.6311,VALID,117,VALID,0.911519,
2007-03-22, 01:40:00,VALID,918.208,VALID,0,VALID,100,VALID,0,VALID,18.6508,VALID,113,VALID,0.581759,
2007-03-22, 01:41:00,VALID,918.196,VALID,0,VALID,100,VALID,-0.0339617,VALID,18.6348,VALID,118,VALID,0.754906,
2007-03-22, 01:42:00,VALID,918.184,VALID,0,VALID,100,VALID,-0.0509425,VALID,18.6308,VALID,125,VALID,0.583274,
2007-03-22, 01:43:00,VALID,918.177,VALID,0,VALID,100,VALID,-0.0509425,VALID,18.6415,VALID,125,VALID,0.866824,
2007-03-22, 01:44:00,VALID,918.169,VALID,0,VALID,100,VALID,-0.0679233,VALID,18.648,VALID,125,VALID,0.881359,
2007-03-22, 01:45:00,VALID,918.161,VALID,0,VALID,100,VALID,-0.0509425,VALID,18.6443,VALID,125,VALID,0.763529,
2007-03-22, 01:46:00,VALID,918.156,VALID,0,VALID,100,VALID,-0.0169808,VALID,18.6438,VALID,127,VALID,0.706143,
2007-03-22, 01:47:00,VALID,918.148,VALID,0,VALID,100,VALID,-0.0169808,VALID,18.6542,VALID,137,VALID,0.684048,
2007-03-22, 01:48:00,VALID,918.15,VALID,0,VALID,100,VALID,-0.0169808,VALID,18.6607,VALID,140,VALID,0.693859,
2007-03-22, 01:49:00,VALID,918.135,VALID,0,VALID,100,VALID,-0.0339617,VALID,18.667,VALID,140,VALID,0.673018,
2007-03-22, 01:50:00,VALID,918.13,VALID,0,VALID,100,VALID,-0.0169808,VALID,18.6698,VALID,140,VALID,0.692708,
2007-03-22, 01:51:00,VALID,918.118,VALID,0,VALID,100,VALID,-0.0169808,VALID,18.6767,VALID,136,VALID,0.699219,
2007-03-22, 01:52:00,VALID,918.123,VALID,0,VALID,100,VALID,-0.0339617,VALID,18.6698,VALID,131,VALID,0.509084,
2007-03-22, 01:53:00,VALID,918.107,VALID,0,VALID,100,VALID,-0.0509425,VALID,18.6807,VALID,119,VALID,0.535974,
2007-03-22, 01:54:00,VALID,918.084,VALID,0,VALID,100,VALID,-0.0169808,VALID,18.6672,VALID,102,VALID,0.825521,
2007-03-22, 01:55:00,VALID,918.076,VALID,0,VALID,100,VALID,-0.0169808,VALID,18.67,VALID,119,VALID,0.674679,
2007-03-22, 01:56:00,VALID,918.07,VALID,0,VALID,100,VALID,-0.0849042,VALID,18.6804,VALID,123,VALID,0.501524,
2007-03-22, 01:57:00,VALID,918.057,VALID,0,VALID,100,VALID,-0.0339617,VALID,18.67,VALID,129,VALID,0.478338,
2007-03-22, 01:58:00,VALID,918.061,VALID,0,VALID,100,VALID,-0.0509425,VALID,18.6872,VALID,132,VALID,0.43564,
2007-03-22, 01:59:00,VALID,918.044,VALID,0,VALID,100,VALID,0,VALID,18.6904,VALID,136,VALID,0.632999,
2007-03-22, 02:00:00,VALID,918.052,VALID,0,VALID,100,VALID,-0.0169808,VALID,18.6867,VALID,135,VALID,0.952753,
2007-03-22, 02:01:00,VALID,918.059,VALID,0,VALID,100,VALID,0,VALID,18.6797,VALID,135,VALID,0.572545,
2007-03-22, 02:02:00,VALID,918.073,VALID,0,VALID,100,VALID,0,VALID,18.6832,VALID,144,VALID,0.391897,
2007-03-22, 02:03:00,VALID,918.069,VALID,0,VALID,100,VALID,-0.0169808,VALID,18.6927,VALID,144,VALID,0.323946,
2007-03-22, 02:04:00,VALID,918.056,VALID,0,VALID,100,VALID,-0.0509425,VALID,18.6899,VALID,132,VALID,0.478125,
2007-03-22, 02:05:00,VALID,918.07,VALID,0,VALID,100,VALID,0,VALID,18.6962,VALID,120,VALID,0.5984,
2007-03-22, 02:06:00,VALID,918.071,VALID,0,VALID,100,VALID,0,VALID,18.686,VALID,120,VALID,0.543605,
2007-03-22, 02:07:00,VALID,918.079,VALID,0,VALID,100,VALID,-0.0339617,VALID,18.6994,VALID,116,VALID,0.311228,
2007-03-22, 02:08:00,VALID,918.094,VALID,0,VALID,100,VALID,-0.0169808,VALID,18.7061,VALID,110,VALID,0.605755,
2007-03-22, 02:09:00,VALID,918.106,VALID,0,VALID,100,VALID,0.0169808,VALID,18.6989,VALID,47,VALID,0.74379,
2007-03-22, 02:10:00,VALID,918.098,VALID,0,VALID,100,VALID,0,VALID,18.6894,VALID,44,VALID,0.579613,
2007-03-22, 02:11:00,VALID,918.119,VALID,0,VALID,100,VALID,0,VALID,18.67,VALID,44,VALID,0.303385,
2007-03-22, 02:12:00,VALID,918.125,VALID,0,VALID,100,VALID,0,VALID,18.6769,VALID,44,VALID,0.135742,
2007-03-22, 02:13:00,VALID,918.135,VALID,0,VALID,100,VALID,-0.0509425,VALID,18.667,VALID,44,VALID,0.211483,
2007-03-22, 02:14:00,VALID,918.135,VALID,0,VALID,100,VALID,0.0169808,VALID,18.6603,VALID,44,VALID,0.0701265,
2007-03-22, 02:15:00,VALID,918.149,VALID,0,VALID,100,VALID,-0.0339617,VALID,18.6538,VALID,44,VALID,0.294331,
2007-03-22, 02:16:00,VALID,918.134,VALID,0,VALID,100,VALID,-0.0169808,VALID,18.654,VALID,44,VALID,0.252362,
2007-03-22, 02:17:00,VALID,918.141,VALID,0,VALID,100,VALID,-0.0169808,VALID,18.641,VALID,44,VALID,0.15,
2007-03-22, 02:18:00,VALID,918.152,VALID,0,VALID,100,VALID,-0.0339617,VALID,18.6345,VALID,44,VALID,0.000363372,
2007-03-22, 02:19:00,VALID,918.139,VALID,0,VALID,100,VALID,-0.0509425,VALID,18.6443,VALID,44,VALID,0.190739,
2007-03-22, 02:20:00,VALID,918.152,VALID,0,VALID,100,VALID,-0.0679233,VALID,18.6478,VALID,44,VALID,0.308036,
2007-03-22, 02:21:00,VALID,918.153,VALID,0,VALID,100,VALID,-0.0339617,VALID,18.6637,VALID,44,VALID,0.244851,
2007-03-22, 02:22:00,VALID,918.147,VALID,0,VALID,100,VALID,-0.0339617,VALID,18.6665,VALID,44,VALID,0.322173,
2007-03-22, 02:23:00,VALID,918.156,VALID,0,VALID,100,VALID,-0.0679233,VALID,18.6802,VALID,44,VALID,0.258743,
2007-03-22, 02:24:00,VALID,918.152,VALID,0,VALID,100,VALID,-0.0339617,VALID,18.6894,VALID,44,VALID,0.0607422,
2007-03-22, 02:25:00,VALID,918.155,VALID,0,VALID,100,VALID,-0.0339617,VALID,18.7031,VALID,44,VALID,0,
2007-03-22, 02:26:00,VALID,918.149,VALID,0,VALID,100,VALID,-0.0509425,VALID,18.6999,VALID,44,VALID,0.143864,
2007-03-22, 02:27:00,VALID,918.138,VALID,0,VALID,100,VALID,-0.0509425,VALID,18.6927,VALID,44,VALID,0.375186,
2007-03-22, 02:28:00,VALID,918.134,VALID,0,VALID,100,VALID,-0.0169808,VALID,18.686,VALID,44,VALID,0.425426,
2007-03-22, 02:29:00,VALID,918.129,VALID,0,VALID,100,VALID,-0.0509425,VALID,18.6929,VALID,44,VALID,0.144985,
2007-03-22, 02:30:00,VALID,918.129,VALID,0,VALID,100,VALID,0,VALID,18.6927,VALID,44,VALID,0.00426136,
2007-03-22, 02:31:01,VALID,918.114,VALID,0,VALID,100,VALID,-0.0169808,VALID,18.686,VALID,44,VALID,0.624822,
2007-03-22, 02:32:00,VALID,918.124,VALID,0,VALID,100,VALID,-0.0679233,VALID,18.6929,VALID,44,VALID,0.896763,
2007-03-22, 02:33:00,VALID,918.112,VALID,0,VALID,100,VALID,-0.0509425,VALID,18.6767,VALID,60,VALID,1.25149,
2007-03-22, 02:34:00,VALID,918.124,VALID,0,VALID,100,VALID,-0.0509425,VALID,18.7131,VALID,51,VALID,1.08594,
2007-03-22, 02:35:00,VALID,918.124,VALID,0,VALID,100,VALID,-0.0339617,VALID,18.7094,VALID,56,VALID,0.953869,
2007-03-22, 02:36:00,VALID,918.132,VALID,0,VALID,100,VALID,0,VALID,18.7091,VALID,61,VALID,1.08518,
2007-03-22, 02:37:00,VALID,918.133,VALID,0,VALID,100,VALID,-0.0339617,VALID,18.7096,VALID,61,VALID,1.07777,
2007-03-22, 02:38:00,VALID,918.128,VALID,0,VALID,100,VALID,-0.0509425,VALID,18.7189,VALID,61,VALID,0.901563,
2007-03-22, 02:39:00,VALID,918.123,VALID,0,VALID,100,VALID,0,VALID,18.7284,VALID,71,VALID,0.782853,
2007-03-22, 02:40:00,VALID,918.129,VALID,0,VALID,100,VALID,-0.0339617,VALID,18.7383,VALID,73,VALID,0.706214,
2007-03-22, 02:41:00,VALID,918.143,VALID,0,VALID,100,VALID,-0.0509425,VALID,18.7319,VALID,80,VALID,0.539244,
2007-03-22, 02:42:00,VALID,918.148,VALID,0,VALID,100,VALID,-0.0339617,VALID,18.7321,VALID,83,VALID,0.65298,
2007-03-22, 02:43:00,VALID,918.157,VALID,0,VALID,100,VALID,0,VALID,18.7319,VALID,83,VALID,0.193403,
2007-03-22, 02:44:00,VALID,918.149,VALID,0,VALID,100,VALID,-0.0339617,VALID,18.7351,VALID,83,VALID,0,
2007-03-22, 02:45:00,VALID,918.142,VALID,0,VALID,100,VALID,-0.0339617,VALID,18.7481,VALID,83,VALID,0.0526042,
2007-03-22, 02:46:00,VALID,918.134,VALID,0,VALID,100,VALID,-0.0509425,VALID,18.7483,VALID,83,VALID,0.159598,
2007-03-22, 02:47:01,VALID,918.136,VALID,0,VALID,100,VALID,-0.0849042,VALID,18.7421,VALID,83,VALID,0.240885,
2007-03-22, 02:48:01,VALID,918.144,VALID,0,VALID,100,VALID,-0.0679233,VALID,18.7314,VALID,83,VALID,0.339208,
2007-03-22, 02:49:00,VALID,918.136,VALID,0,VALID,100,VALID,-0.0339617,VALID,18.7349,VALID,64,VALID,0.278764,
2007-03-22, 02:50:01,VALID,918.135,VALID,0,VALID,100,VALID,-0.0509425,VALID,18.7316,VALID,49,VALID,0.0626905,
2007-03-22, 02:51:00,VALID,918.121,VALID,0,VALID,100,VALID,-0.0339617,VALID,18.7281,VALID,49,VALID,0.0873766,
2007-03-22, 02:52:01,VALID,918.135,VALID,0,VALID,100,VALID,-0.0849042,VALID,18.7386,VALID,49,VALID,0.261009,
2007-03-22, 02:53:01,VALID,918.131,VALID,0,VALID,100,VALID,-0.0509425,VALID,18.7351,VALID,49,VALID,0.108259,
2007-03-22, 02:54:00,VALID,918.127,VALID,0,VALID,100,VALID,-0.0339617,VALID,18.7548,VALID,49,VALID,0,
2007-03-22, 02:55:00,VALID,918.129,VALID,0,VALID,100,VALID,-0.0169808,VALID,18.7511,VALID,36,VALID,0.245384,
2007-03-22, 02:56:01,VALID,918.131,VALID,0,VALID,100,VALID,-0.0679233,VALID,18.7483,VALID,275,VALID,0.501116,
2007-03-22, 02:57:00,VALID,918.131,VALID,0,VALID,100,VALID,-0.0169808,VALID,18.7413,VALID,275,VALID,0.183685,
2007-03-22, 02:58:01,VALID,918.114,VALID,0,VALID,100,VALID,0,VALID,18.7448,VALID,275,VALID,0.00136719,
2007-03-22, 02:59:00,VALID,918.122,VALID,0,VALID,100,VALID,-0.0169808,VALID,18.7349,VALID,275,VALID,0.0500372,
2007-03-22, 03:00:00,VALID,918.1,VALID,0,VALID,100,VALID,0,VALID,18.7379,VALID,279,VALID,0.425145,
2007-03-22, 03:01:00,VALID,918.093,VALID,0,VALID,100,VALID,-0.0339617,VALID,18.7314,VALID,282,VALID,0.246652,
2007-03-22, 03:02:01,VALID,918.082,VALID,0,VALID,100,VALID,-0.0509425,VALID,18.7221,VALID,288,VALID,0.471058,
2007-03-22, 03:03:00,VALID,918.07,VALID,0,VALID,100,VALID,-0.0509425,VALID,18.7319,VALID,293,VALID,0.103237,
2007-03-22, 03:04:00,VALID,918.071,VALID,0,VALID,100,VALID,0,VALID,18.7286,VALID,293,VALID,0.0826671,
2007-03-22, 03:05:00,VALID,918.051,VALID,0,VALID,100,VALID,-0.0169808,VALID,18.7311,VALID,293,VALID,0.121652,
2007-03-22, 03:06:00,VALID,918.054,VALID,0,VALID,100,VALID,-0.0169808,VALID,18.7478,VALID,293,VALID,0.13872,
2007-03-22, 03:07:01,VALID,918.044,VALID,0,VALID,100,VALID,-0.0169808,VALID,18.7511,VALID,293,VALID,0,
2007-03-22, 03:08:00,VALID,918.054,VALID,0,VALID,100,VALID,-0.0169808,VALID,18.7708,VALID,293,VALID,0.0024858,
2007-03-22, 03:09:00,VALID,918.024,VALID,0,VALID,100,VALID,-0.0339617,VALID,18.7777,VALID,293,VALID,0.272485,
2007-03-22, 03:10:00,VALID,918.033,VALID,0,VALID,100,VALID,-0.0339617,VALID,18.797,VALID,293,VALID,0.0261549,
2007-03-22, 03:11:01,VALID,918.01,VALID,0,VALID,100,VALID,-0.0509425,VALID,18.8097,VALID,295,VALID,0.383507,
2007-03-22, 03:12:01,VALID,918.001,VALID,0,VALID,100,VALID,-0.0169808,VALID,18.8092,VALID,15,VALID,0.753567,
2007-03-22, 03:13:00,VALID,917.994,VALID,0,VALID,100,VALID,-0.0339617,VALID,18.8027,VALID,26,VALID,0.847384,
2007-03-22, 03:14:01,VALID,917.984,VALID,0,VALID,100,VALID,-0.0169808,VALID,18.8257,VALID,26,VALID,1.14517,
2007-03-22, 03:15:01,VALID,917.979,VALID,0,VALID,100,VALID,-0.0849042,VALID,18.8558,VALID,24,VALID,1.20443,
2007-03-22, 03:16:01,VALID,917.958,VALID,0,VALID,100,VALID,-0.0849042,VALID,18.8947,VALID,27,VALID,0.924479,
2007-03-22, 03:17:00,VALID,917.951,VALID,0,VALID,100,VALID,-0.0509425,VALID,18.9105,VALID,34,VALID,0.69407,
2007-03-22, 03:18:00,VALID,917.939,VALID,0,VALID,100,VALID,-0.0679233,VALID,18.9332,VALID,30,VALID,0.316034,
2007-03-22, 03:19:01,VALID,917.946,VALID,0,VALID,100,VALID,-0.0509425,VALID,18.9494,VALID,26,VALID,0.092152,
2007-03-22, 03:20:00,VALID,917.94,VALID,0,VALID,100,VALID,-0.0169808,VALID,18.9554,VALID,26,VALID,0.302734,
2007-03-22, 03:21:01,VALID,917.927,VALID,0,VALID,100,VALID,-0.0339617,VALID,18.9719,VALID,13,VALID,0.440625,
2007-03-22, 03:22:01,VALID,917.896,VALID,0,VALID,100,VALID,-0.0339617,VALID,18.9786,VALID,318,VALID,0.0827753,
2007-03-22, 03:23:00,VALID,917.867,VALID,0,VALID,100,VALID,-0.0339617,VALID,18.9786,VALID,344,VALID,0.292969,
2007-03-22, 03:24:01,VALID,917.859,VALID,0,VALID,100,VALID,-0.0679233,VALID,18.9781,VALID,19,VALID,0.690225,
2007-03-22, 03:25:01,VALID,917.842,VALID,0,VALID,100,VALID,-0.0509425,VALID,18.9946,VALID,35,VALID,1.17299,
2007-03-22, 03:26:01,VALID,917.842,VALID,0,VALID,100,VALID,-0.0509425,VALID,19.0307,VALID,25,VALID,0.936384,
2007-03-22, 03:27:01,VALID,917.824,VALID,0,VALID,100,VALID,-0.0679233,VALID,19.0569,VALID,37,VALID,0.719105,
2007-03-22, 03:28:01,VALID,917.813,VALID,0,VALID,100,VALID,-0.101885,VALID,19.0657,VALID,35,VALID,1.00799,
2007-03-22, 03:29:01,VALID,917.808,VALID,0,VALID,100,VALID,-0.0339617,VALID,19.0984,VALID,34,VALID,0.713844,
2007-03-22, 03:30:01,VALID,917.795,VALID,0,VALID,100,VALID,-0.0849042,VALID,19.1176,VALID,38,VALID,0.291295,
2007-03-22, 03:31:01,VALID,917.786,VALID,0,VALID,100,VALID,-0.0509425,VALID,19.144,VALID,38,VALID,0.155678,
2007-03-22, 03:32:00,VALID,917.763,VALID,0,VALID,100,VALID,-0.0849042,VALID,19.154,VALID,31,VALID,0.300595,
2007-03-22, 03:33:00,VALID,917.732,VALID,0,VALID,100,VALID,-0.0849042,VALID,19.1668,VALID,37,VALID,1.37705,
2007-03-22, 03:34:00,VALID,917.729,VALID,0,VALID,100,VALID,-0.0339617,VALID,19.2319,VALID,49,VALID,0.971591,
2007-03-22, 03:35:00,VALID,917.714,VALID,0,VALID,100,VALID,-0.0679233,VALID,19.2608,VALID,41,VALID,0.588715,
2007-03-22, 03:36:00,VALID,917.694,VALID,0,VALID,100,VALID,-0.0509425,VALID,19.2474,VALID,38,VALID,0.701853,
2007-03-22, 03:37:00,VALID,917.694,VALID,0,VALID,100,VALID,-0.0169808,VALID,19.2676,VALID,40,VALID,0.990748,
2007-03-22, 03:38:00,VALID,917.69,VALID,0,VALID,100,VALID,-0.0679233,VALID,19.2706,VALID,27,VALID,0.804688,
2007-03-22, 03:39:00,VALID,917.687,VALID,0,VALID,100,VALID,-0.0849042,VALID,19.2738,VALID,26,VALID,0.537109,
2007-03-22, 03:40:00,VALID,917.689,VALID,0,VALID,100,VALID,-0.0339617,VALID,19.2838,VALID,26,VALID,0.593941,